Tracking 18030 objects as of 28-March-2017
HD Live streaming from Space Station
objects crossing your sky now

IABS R/B

Track IABS R/B now!


NORAD ID: 26054
Int'l Code: 2000-001C
Perigee: 35,445.4 km
Apogee: 35,640.1 km
Inclination: 12.9 °
Period: 1,423.3 minutes
Semi major axis: 41913 km
RCS: Unknown
Launch date: January 21, 2000
Source: United States (US)
Launch site: AIR FORCE EASTERN TEST RANGE (AFETR)

Note: This is a ROCKET BODY
Your satellite tracking list
Your tracking list is empty





NASA's NSSDC Master Catalog

Two Line Element Set (TLE):
1 26054U 00001C   17049.28283949 0.00000000  00000-0  00000-0 0    07
2 26054  12.9341  28.5191 0023216 262.3513  97.3970  1.01173806    03
Source of the keplerian elements: McCants